This is the latest recevied weather packets stored in our database for station/object KM4NDN. If no packets are shown the sender has not sent any weather packets the latest 10 day(s).
| Time | Temp. | Humidity | Pressure | Rain* | Wind** | Luminosity | Snow |
|---|---|---|---|---|---|---|---|
| 1777617236 | 7.78° C | 69% | 1012.1 hPa | 0 mm | - | 0 W/m² | - |
| 1777616933 | 7.78° C | 69% | 1012 hPa | 0 mm | - | 0 W/m² | - |
| 1777616629 | 7.78° C | 69% | 1012.4 hPa | 0 mm | - | 0 W/m² | - |
| 1777616324 | 8.33° C | 68% | 1012.5 hPa | 0 mm | - | 0 W/m² | - |
| 1777616021 | 8.33° C | 67% | 1012.5 hPa | 0 mm | - | 0 W/m² | - |
| 1777615717 | 8.33° C | 68% | 1012.5 hPa | 0 mm | - | 0 W/m² | - |
| 1777615414 | 8.33° C | 67% | 1012.5 hPa | 0 mm | - | 0 W/m² | - |
| 1777615114 | 8.33° C | 67% | 1012.5 hPa | 0 mm | - | 0 W/m² | - |
| 1777614809 | 8.33° C | 67% | 1012.4 hPa | 0 mm | - | 0 W/m² | - |
| 1777614506 | 8.33° C | 67% | 1012.6 hPa | 0 mm | - | 0 W/m² | - |
| 1777614201 | 8.33° C | 67% | 1012.7 hPa | 0 mm | - | 0 W/m² | - |
| 1777613896 | 8.33° C | 67% | 1012.4 hPa | 0 mm | - | 0 W/m² | - |
| 1777613594 | 8.33° C | 68% | 1012.3 hPa | 0 mm | - | 0 W/m² | - |
| 1777613290 | 8.33° C | 67% | 1012.4 hPa | 0 mm | - | 0 W/m² | - |
| 1777612987 | 8.33° C | 67% | 1012.6 hPa | 0 mm | - | 0 W/m² | - |
| 1777612682 | 8.33° C | 66% | 1012.4 hPa | 0 mm | - | 0 W/m² | - |
| 1777612379 | 8.89° C | 66% | 1012.4 hPa | 0 mm | - | 0 W/m² | - |
| 1777612074 | 8.89° C | 64% | 1012.3 hPa | 0 mm | - | 0 W/m² | - |
| 1777611769 | 8.89° C | 64% | 1012.5 hPa | 0 mm | - | 0 W/m² | - |
| 1777611466 | 8.89° C | 64% | 1012.6 hPa | 0 mm | - | 0 W/m² | - |
| 1777611163 | 9.44° C | 63% | 1012.7 hPa | 0 mm | - | 0 W/m² | - |
| 1777610858 | 9.44° C | 61% | 1012.7 hPa | 0 mm | - | 0 W/m² | - |
| 1777610554 | 8.89° C | 60% | 1012.7 hPa | 0 mm | - | 0 W/m² | - |
| 1777610249 | 8.89° C | 64% | 1012.5 hPa | 0 mm | - | 0 W/m² | - |
| 1777609946 | 8.33° C | 66% | 1012.7 hPa | 0 mm | - | 0 W/m² | - |
* Rain latest hour (hover to see other rain measurements)
** Current wind speed in m/s (hover to see current wind gust speed)